Weather History for Paducah, KY

Change the Weather History Date:

Thursday, May 10, 2012

  Actual Average Record
Temperature  
Mean Temperature 61 °F 66 °F  
Max Temperature 75 °F 76 °F 87 °F (1979)
Min Temperature 46 °F 55 °F 35 °F (1966)
Degree Days  
Heating Degree Days 4 3  
Month to date heating degree days 7 33  
Since 1 July heating degree days 3208 4097  
Cooling Degree Days 0 3  
Month to date cooling degree days 84 24  
Year to date cooling degree days 220 66  
Growing Degree Days 10 (Base 50)    
Moisture  
Dew Point 46 °F    
Average Humidity 64    
Maximum Humidity 93    
Minimum Humidity 35    
Precipitation  
Precipitation 0.00 in 0.17 in 2.11 in (1968)
Month to date precipitation 0.14 1.75  
Year to date precipitation 10.44 18.03  
Snow  
Snow 0.00 in 0.00 in 0.00 in (2002)
Month to date snowfall 0.0 0.0  
Since 1 July snowfall 0.7 9.1  
Snow Depth 0.00 in    
Sea Level Pressure  
Sea Level Pressure 29.97 in    
Wind  
Wind Speed 3 mph (East)    
Max Wind Speed 10 mph    
Max Gust Speed 18 mph    
Visibility 10 miles    
Events      
T = Trace of Precipitation, MM = Missing Value Source: NWS Daily Summary

Daily Weather History Graph

Daily Weather History Graph

Search for Another Location

Airport:

Trip Planner

Search our weather history database for the weather conditions in past years. The results will help you decide how hot, cold, wet, or windy it might be!

Date:

Astronomy

May. 10, 2012 Rise Set
Actual Time 5:50 AM CDT 7:52 PM CDT
Civil Twilight 5:22 AM CDT 8:21 PM CDT
Nautical Twilight 4:47 AM CDT 8:56 PM CDT
Astronomical Twilight 4:09 AM CDT 9:34 PM CDT
Moon No Moon Rise 10:15 AM CDT (5/10)
Length of Visible Light 14h 59m
Length of Day
14h 01m
Waning Gibbous, 73% of the Moon is Illuminated
May 10
Waning Gibbous
May 12
Last Quarter
May 20
New
May 28
First Quarter
Jun 4
Full

Hourly Weather History & Observations

Time (CDT) Temp. Dew Point Humidity Pressure Visibility Wind Dir Wind Speed Gust Speed Precip Events Conditions
12:53 AM 48.0 °F 45.0 °F 89% 29.93 in 10.0 mi Calm Calm - N/A   Clear
1:53 AM 46.9 °F 45.0 °F 93% 29.93 in 10.0 mi WSW 4.6 mph - N/A   Clear
2:53 AM 50.0 °F 45.0 °F 83% 29.92 in 10.0 mi WSW 5.8 mph - N/A   Clear
3:53 AM 46.9 °F 43.0 °F 86% 29.93 in 10.0 mi WSW 3.5 mph - N/A   Clear
4:53 AM 48.9 °F 45.0 °F 86% 29.94 in 10.0 mi Calm Calm - N/A   Clear
5:53 AM 46.0 °F 45.0 °F 96% 29.95 in 10.0 mi Calm Calm - N/A   Clear
6:53 AM 51.1 °F 48.0 °F 89% 29.97 in 7.0 mi Calm Calm - N/A   Clear
7:53 AM 57.9 °F 48.9 °F 72% 29.99 in 10.0 mi East 3.5 mph - N/A   Clear
8:53 AM 64.0 °F 48.9 °F 58% 29.99 in 10.0 mi ENE 3.5 mph - N/A   Clear
9:53 AM 66.9 °F 46.9 °F 49% 29.99 in 10.0 mi East 5.8 mph - N/A   Clear
10:53 AM 69.1 °F 46.9 °F 45% 30.00 in 10.0 mi SSE 5.8 mph - N/A   Clear
11:53 AM 72.0 °F 46.0 °F 40% 29.99 in 10.0 mi Calm Calm - N/A   Partly Cloudy
12:53 PM 71.1 °F 46.0 °F 41% 29.98 in 10.0 mi Calm Calm - N/A   Scattered Clouds
1:53 PM 72.0 °F 45.0 °F 38% 29.97 in 10.0 mi Variable 4.6 mph - N/A   Mostly Cloudy
2:53 PM 73.0 °F 45.0 °F 37% 29.96 in 10.0 mi Variable 3.5 mph - N/A   Mostly Cloudy
3:53 PM 72.0 °F 45.0 °F 38% 29.95 in 10.0 mi NNE 5.8 mph - N/A   Overcast
4:53 PM 71.1 °F 46.0 °F 41% 29.95 in 10.0 mi ENE 3.5 mph - N/A   Scattered Clouds
5:53 PM 72.0 °F 45.0 °F 38% 29.95 in 10.0 mi East 3.5 mph - N/A   Mostly Cloudy
6:53 PM 70.0 °F 45.0 °F 41% 29.95 in 10.0 mi East 4.6 mph - N/A   Clear
7:53 PM 63.0 °F 48.0 °F 58% 29.96 in 10.0 mi SE 3.5 mph - N/A   Clear
8:53 PM 57.9 °F 46.9 °F 67% 29.98 in 10.0 mi Calm Calm - N/A   Clear
9:53 PM 55.9 °F 48.0 °F 75% 30.00 in 10.0 mi Calm Calm - N/A   Clear
10:53 PM 54.0 °F 48.0 °F 80% 30.01 in 10.0 mi Calm Calm - N/A   Clear
11:53 PM 53.1 °F 46.9 °F 80% 30.02 in 7.0 mi Calm Calm - N/A   Clear